Terminal Aerodrome Forecast
Issued by NWS Wilmington, OH

Current Version | Previous Version | Text Only | Print | Product List | Glossary Off
Versions: 1 2 3 4 5 6 7 8 9 10 11 12 13 14 15 16 17 18 19

000
FTUS41 KILN 271700
TAFDAY
TAF
KDAY 271739Z 2718/2818 33006KT P6SM SCT025
     FM280000 00000KT P6SM SCT200
     FM280800 08004KT P6SM BKN100
     FM281700 11007KT P6SM BKN060=

USA.gov is the U.S. government's official web portal to all federal, state and local government web resources and services.